Find Starlink 34675

NORAD ID: 64809 Int'l Des: 2025-150 Owner: SPXS Country: US Constellation: starlink operational
LEOCIRCULAR

Current View

Loading 3D Globe...

About Starlink 34675

Description loading...

Upcoming Passes

Passes for default location (London). Set your location on the main map for personalized predictions.

Altitude History

Loading altitude history...

Two-Line Element Set

1 64809U 25150V 26145.37341198 .00003515 00000-0 30221-3 0 9999
2 64809 70.0003 301.0949 0002964 265.9530 94.1290 14.98337388 48007
Epoch: May 25, 2026 • Age: 21 hours

Current Status

Altitude 586.6 km
Velocity 7.57 km/s
Sub-Earth Point -43.05°S, 48.41°W
Launch Date Jul 16, 2025
Age 0.8 years
Type internet

Technical Details

Classification Payload
Mass 575.00 kg
Dry Mass 530.00 kg
Total Mass 575.00 kg
Length 0.30 m
Diameter 4.10 m
Span 29.00 m
Shape Box + pan
Manufacturer SPXS
Bus Type Starlink V2MO
Phase Status In Orbit
Owner/State SPXS/US

Most Searched